[[{"header":{"parameterUnit":"m.s-1","parameterCategory":1,"la1":30.2991,"la2":30.254,"lo1":-89.0895,"lo2":-89.0444,"dy":0.0017,"dx":0.0017,"nx":28,"ny":28,"refTime":"2024-06-29T21:00:00:Z","depth":0,"parameterNumber":2,"parameterNumberName":"U-component_of_WINDS"},"data":[0,0,0,0,0,0,0,0,0,0,0,0,0,0,0,0,0,0,0,0,0,0,0,0,0,0,0,0,0,0,0,0,0,0,0,0,0,0,0,0,0,0,0,0,0,0,0,0,0,0,0,0,0,0,0,0,0,0,-0.3718,-0.3718,0,-0.3735,-0.3735,-0.3735,-0.3779,-0.378,-0.3781,-0.3782,-0.3798,-0.3797,-0.3797,0,0,0,0,0,0,0,0,0,0,0,0,0,-0.3721,-0.3721,-0.3718,-0.3718,-0.3718,-0.3735,-0.3735,-0.3735,-0.3779,-0.378,-0.3781,-0.3783,-0.3798,-0.3798,-0.3797,0,0,0,0,0,0,0,0,0,0,0,0,0,-0.3727,-0.3721,-0.3718,-0.3742,-0.3744,-0.3735,-0.3735,-0.3735,-0.3779,-0.378,-0.3782,-0.3783,-0.3798,-0.3798,-0.3797,-0.3764,0,0,-0.3795,-0.3794,0,0,0,0,0,0,0,0,-0.3727,-0.3727,-0.3738,-0.374,-0.3743,-0.3756,-0.3742,-0.3745,-0.3779,-0.3766,-0.3782,-0.3784,-0.3783,-0.3784,-0.3784,-0.3765,-0.3766,-0.3795,-0.3794,-0.3794,-0.3794,0,0,0,0,0,0,0,-0.3726,-0.3726,-0.3724,-0.3738,-0.3741,-0.3752,-0.3754,-0.3743,-0.3766,-0.3767,-0.377,-0.3772,-0.3784,-0.3784,-0.3784,-0.3766,-0.3795,-0.3794,-0.3794,-0.3793,-0.3721,-0.3719,0,0,0,0,0,0,-0.3722,-0.3726,-0.3724,-0.3725,-0.3738,-0.375,-0.3753,-0.3751,-0.3766,-0.377,-0.3771,-0.3774,-0.3785,-0.3785,-0.3785,-0.3747,-0.3794,-0.3793,-0.3793,-0.3722,-0.372,-0.3719,0,0,0,0,0,0,-0.3722,-0.3722,-0.3723,-0.3726,-0.3727,-0.3749,-0.3746,-0.375,-0.375,-0.3769,-0.3773,-0.3766,-0.3786,-0.3786,-0.3769,-0.3749,-0.3793,-0.3792,-0.3724,-0.3722,-0.372,-0.3672,0,0,0,0,0,0,-0.3722,-0.3722,-0.371,-0.3726,-0.3727,-0.3707,-0.3745,-0.375,-0.3749,-0.3753,-0.3766,-0.3769,-0.3787,-0.377,-0.3768,-0.3748,-0.3792,-0.3726,-0.3723,-0.372,-0.3676,-0.3669,-0.3662,0,0,0,0,0,-0.3722,-0.3696,-0.3709,-0.3709,-0.3713,-0.3706,-0.3707,-0.3728,-0.3747,-0.3735,-0.3747,-0.3769,-0.3751,-0.3768,-0.3766,-0.3746,-0.3727,-0.3724,-0.372,-0.3679,-0.367,-0.3663,0,0,0,0,0,0,-0.3677,-0.3698,-0.3713,-0.3691,-0.3697,-0.3714,-0.3699,-0.3718,-0.3718,-0.3722,-0.3747,-0.375,-0.3729,-0.3736,-0.3754,-0.3715,-0.3743,-0.3739,-0.3711,-0.3703,-0.3697,-0.3695,-0.3791,0,0,0,0,0,-0.3664,-0.3658,-0.3677,-0.3655,-0.3657,-0.3678,-0.3675,-0.3691,-0.3698,-0.37,-0.3711,-0.3716,-0.3711,-0.3708,-0.3704,-0.3677,-0.368,-0.3662,-0.3655,-0.365,-0.3646,-0.3631,-0.3623,-0.3708,-0.3708,-0.3708,0,0,-0.3638,-0.3649,-0.3643,-0.3646,-0.3652,-0.3644,-0.3679,-0.3669,-0.3663,-0.3698,-0.3683,-0.3691,-0.3698,-0.3675,-0.3666,-0.368,-0.3624,-0.3646,-0.3641,-0.364,-0.3627,-0.3619,-0.3612,-0.3705,-0.3706,-0.3706,0,0,-0.3586,-0.3594,-0.3577,-0.3582,-0.3591,-0.3605,-0.36,-0.3614,-0.3621,-0.3607,-0.3632,-0.3625,-0.3617,-0.3621,-0.3622,-0.357,-0.359,-0.3569,-0.3534,-0.3519,-0.3513,-0.3507,-0.3488,-0.3481,-0.3565,-0.3565,-0.3565,0,-0.3552,-0.3542,-0.3565,-0.3554,-0.3554,-0.3586,-0.3568,-0.3572,-0.3579,-0.3578,-0.3594,-0.3584,-0.3591,-0.3569,-0.3557,-0.3556,-0.3552,-0.3567,-0.3512,-0.3506,-0.3501,-0.3484,-0.3476,-0.3562,-0.3562,-0.3563,-0.3563,0,-0.35,-0.3492,-0.3477,-0.3483,-0.3482,-0.3467,-0.3488,-0.3483,-0.3499,-0.351,-0.3494,-0.3504,-0.3503,-0.3499,-0.3514,-0.3479,-0.3488,-0.3507,-0.3536,-0.349,-0.3474,-0.3467,-0.3558,-0.3559,-0.356,-0.3561,0,0,-0.342,-0.3439,-0.3433,-0.3436,-0.3448,-0.3442,-0.3428,-0.3428,-0.3423,-0.3427,-0.3415,-0.3407,-0.3425,-0.3426,-0.3442,-0.3429,-0.3387,-0.345,-0.3451,-0.3438,-0.3348,-0.3333,-0.3325,-0.34,-0.3399,-0.3398,-0.3348,0,-0.3371,-0.3349,-0.337,-0.3344,-0.3336,-0.3366,-0.3354,-0.3359,-0.337,-0.3364,-0.3376,-0.3369,-0.3394,-0.3395,-0.3383,-0.3394,-0.3369,-0.3398,-0.3389,-0.3389,-0.3386,-0.3317,-0.3301,-0.3253,-0.3341,-0.334,-0.334,0,-0.3311,-0.3312,-0.3285,-0.3298,-0.3296,-0.3285,-0.3285,-0.328,-0.3287,-0.3295,-0.3295,-0.3315,-0.3301,-0.3329,-0.3311,-0.333,-0.3327,-0.3332,-0.3331,-0.333,-0.3361,-0.3314,-0.3238,-0.3231,-0.333,-0.3331,-0.3331,0,-0.3255,-0.3249,-0.3233,-0.3234,-0.3249,-0.324,-0.3246,-0.3254,-0.3252,-0.3252,-0.3251,-0.325,-0.3249,-0.3247,-0.3265,-0.3284,-0.3244,-0.3273,-0.325,-0.3249,-0.324,-0.324,-0.3162,-0.3239,-0.3239,-0.3239,-0.3239,0,-0.3198,-0.318,-0.3208,-0.3197,-0.3178,-0.3201,-0.3182,-0.319,-0.3197,-0.3188,-0.3213,-0.3204,-0.3229,-0.3222,-0.3236,-0.3218,-0.3217,-0.3223,-0.3227,-0.3221,-0.322,-0.3219,-0.3223,-0.3237,-0.3237,-0.3238,-0.3238,0,-0.3132,-0.315,-0.3133,-0.3148,-0.3152,-0.3137,-0.315,-0.314,-0.3152,-0.3141,-0.3139,-0.3158,-0.3151,-0.3169,-0.3165,-0.3174,-0.3148,-0.3158,-0.3146,-0.3149,-0.3124,-0.3126,-0.3043,-0.3032,-0.3116,-0.3115,-0.3114,0,-0.3094,-0.3081,-0.3095,-0.3091,-0.3095,-0.3089,-0.3087,-0.3109,-0.3106,-0.3112,-0.3102,-0.3097,-0.3095,-0.3083,-0.3096,-0.3092,-0.3102,-0.3073,-0.3101,-0.3095,-0.3101,-0.3101,-0.31,-0.3067,-0.3066,-0.3065,-0.3064,0,-0.3025,-0.3034,-0.3031,-0.3031,-0.3028,-0.3029,-0.3031,-0.3026,-0.305,-0.3045,-0.3039,-0.3037,-0.3033,-0.3028,-0.3027,-0.3033,-0.3052,-0.3055,-0.3049,-0.3043,-0.3036,-0.3039,-0.313,-0.3057,-0.3057,-0.3058,-0.3058,-0.3059,-0.2972,-0.2962,-0.297,-0.2965,-0.2969,-0.2971,-0.2962,-0.2973,-0.2969,-0.2967,-0.2981,-0.2971,-0.2977,-0.2979,-0.2982,-0.2974,-0.2987,-0.2979,-0.2977,-0.2975,-0.297,-0.3038,-0.2974,-0.2974,-0.2975,-0.2975,-0.2975,0,-0.2904,-0.291,-0.2906,-0.2908,-0.2904,-0.2924,-0.2927,-0.2922,-0.2914,-0.2918,-0.2915,-0.2908,-0.2903,-0.2915,-0.2911,-0.2903,-0.2912,-0.2901,-0.2902,-0.2903,-0.2959,-0.2964,-0.2895,-0.2895,-0.2895,-0.2895,-0.2895,-0.2895,-0.2868,-0.2851,-0.2862,-0.2847,-0.2854,-0.2845,-0.2845,-0.2846,-0.285,-0.284,-0.2837,-0.2845,-0.2852,-0.2849,-0.2845,-0.2849,-0.2846,-0.2832,-0.2839,-0.2891,-0.2899,-0.2906,-0.2911,-0.2832,-0.2832,-0.2784,-0.2783,-0.2783]},{"header":{"parameterUnit":"m.s-1","parameterCategory":1,"la1":30.2991,"la2":30.254,"lo1":-89.0895,"lo2":-89.0444,"dy":0.0017,"dx":0.0017,"nx":28,"ny":28,"refTime":"2024-06-29T21:00:00:Z","depth":0,"parameterNumber":3,"parameterNumberName":"V-component_of_WINDS"},"data":[0,0,0,0,0,0,0,0,0,0,0,0,0,0,0,0,0,0,0,0,0,0,0,0,0,0,0,0,0,0,0,0,0,0,0,0,0,0,0,0,0,0,0,0,0,0,0,0,0,0,0,0,0,0,0,0,0,0,-3.091,-3.091,0,-3.0944,-3.0944,-3.0945,-3.0943,-3.0943,-3.0942,-3.0942,-3.0973,-3.0975,-3.0976,0,0,0,0,0,0,0,0,0,0,0,0,0,-3.0842,-3.0843,-3.091,-3.091,-3.0911,-3.0944,-3.0944,-3.0945,-3.0943,-3.0943,-3.0942,-3.0941,-3.0973,-3.0974,-3.0976,0,0,0,0,0,0,0,0,0,0,0,0,0,-3.0873,-3.0844,-3.091,-3.0914,-3.0915,-3.0944,-3.0944,-3.0945,-3.0943,-3.0943,-3.0942,-3.0941,-3.0972,-3.0974,-3.0976,-3.1002,0,0,-3.0982,-3.0983,0,0,0,0,0,0,0,0,-3.0871,-3.0876,-3.0913,-3.0914,-3.0915,-3.0939,-3.0932,-3.0964,-3.0943,-3.0932,-3.0942,-3.0941,-3.0962,-3.0965,-3.0973,-3.1004,-3.1005,-3.0982,-3.0983,-3.0984,-3.0985,0,0,0,0,0,0,0,-3.0869,-3.0874,-3.0923,-3.0913,-3.0914,-3.0914,-3.0917,-3.0938,-3.0951,-3.0933,-3.0933,-3.0937,-3.0962,-3.0971,-3.0973,-3.1006,-3.0982,-3.0984,-3.0985,-3.0986,-3.1062,-3.1063,0,0,0,0,0,0,-3.0866,-3.0872,-3.0922,-3.0924,-3.0891,-3.0915,-3.092,-3.0932,-3.095,-3.0953,-3.0938,-3.0937,-3.0968,-3.0971,-3.0974,-3.1008,-3.0984,-3.0986,-3.0987,-3.1061,-3.1062,-3.1063,0,0,0,0,0,0,-3.0865,-3.0871,-3.0921,-3.0898,-3.0905,-3.0917,-3.0931,-3.0933,-3.0941,-3.0954,-3.0956,-3.0944,-3.0967,-3.0972,-3.0996,-3.1009,-3.0987,-3.0989,-3.106,-3.1062,-3.1063,-3.1074,0,0,0,0,0,0,-3.0863,-3.087,-3.0881,-3.0899,-3.0906,-3.0942,-3.0932,-3.0934,-3.0945,-3.0944,-3.0961,-3.0963,-3.0967,-3.0993,-3.0998,-3.1011,-3.099,-3.1059,-3.1061,-3.1062,-3.1073,-3.1076,-3.1079,0,0,0,0,0,-3.0861,-3.0881,-3.0881,-3.0887,-3.0919,-3.0943,-3.0947,-3.0953,-3.0946,-3.0956,-3.0965,-3.0962,-3.1007,-3.0996,-3.1001,-3.1015,-3.1058,-3.106,-3.1062,-3.1072,-3.1075,-3.1078,0,0,0,0,0,0,-3.0863,-3.0884,-3.0884,-3.0911,-3.0926,-3.0943,-3.0956,-3.0956,-3.0972,-3.097,-3.0976,-3.098,-3.1005,-3.1012,-3.0999,-3.1043,-3.1032,-3.1035,-3.1037,-3.1041,-3.1043,-3.1041,-3.0992,0,0,0,0,0,-3.0867,-3.0885,-3.0902,-3.0924,-3.0932,-3.0943,-3.0953,-3.0957,-3.0971,-3.0977,-3.0988,-3.1001,-3.1019,-3.103,-3.1046,-3.1074,-3.1078,-3.1086,-3.1089,-3.1091,-3.1094,-3.1111,-3.1116,-3.107,-3.107,-3.107,0,0,-3.0874,-3.0888,-3.0899,-3.0925,-3.0937,-3.0956,-3.0948,-3.0967,-3.0982,-3.098,-3.1004,-3.1013,-3.1028,-3.1055,-3.1067,-3.1062,-3.1108,-3.1094,-3.1096,-3.1097,-3.1114,-3.1118,-3.1122,-3.1071,-3.1071,-3.1071,0,0,-3.0898,-3.091,-3.0931,-3.0944,-3.0962,-3.097,-3.0975,-3.0993,-3.0999,-3.1024,-3.1024,-3.104,-3.1069,-3.1081,-3.1091,-3.1122,-3.1121,-3.1127,-3.1142,-3.1159,-3.1163,-3.1166,-3.1179,-3.1183,-3.113,-3.113,-3.113,0,-3.0905,-3.0934,-3.0941,-3.0963,-3.0975,-3.0976,-3.0998,-3.1009,-3.1031,-3.1039,-3.1033,-3.1072,-3.1082,-3.1113,-3.1121,-3.1128,-3.1135,-3.1126,-3.1162,-3.1165,-3.1168,-3.118,-3.1185,-3.1131,-3.1131,-3.1131,-3.1131,0,-3.0943,-3.0963,-3.0978,-3.1002,-3.1016,-3.1037,-3.1047,-3.106,-3.1063,-3.1071,-3.1097,-3.111,-3.113,-3.1138,-3.1139,-3.1169,-3.1166,-3.1161,-3.115,-3.1173,-3.1185,-3.119,-3.1132,-3.1132,-3.1131,-3.1131,0,0,-3.0968,-3.0998,-3.1003,-3.1015,-3.1037,-3.1052,-3.1074,-3.1095,-3.1107,-3.1123,-3.1141,-3.1167,-3.1164,-3.1175,-3.1178,-3.1193,-3.1219,-3.1186,-3.1187,-3.1193,-3.1255,-3.1259,-3.1264,-3.1218,-3.1219,-3.122,-3.1254,0,-3.0995,-3.1035,-3.1043,-3.1078,-3.1098,-3.11,-3.1119,-3.1134,-3.1143,-3.116,-3.1169,-3.1189,-3.1181,-3.1189,-3.1203,-3.1213,-3.1232,-3.121,-3.1236,-3.1237,-3.1233,-3.127,-3.1275,-3.1306,-3.1258,-3.1259,-3.126,0,-3.1032,-3.1052,-3.1089,-3.111,-3.1119,-3.1136,-3.1157,-3.1174,-3.1192,-3.1197,-3.1211,-3.1214,-3.1236,-3.1224,-3.1256,-3.1242,-3.1253,-3.1259,-3.1261,-3.1264,-3.125,-3.1276,-3.1316,-3.1321,-3.1266,-3.1266,-3.1265,0,-3.1049,-3.1084,-3.1111,-3.1121,-3.1146,-3.1159,-3.1169,-3.1187,-3.12,-3.1218,-3.1227,-3.1247,-3.1258,-3.1274,-3.1282,-3.1272,-3.1314,-3.1302,-3.1319,-3.1319,-3.1328,-3.1328,-3.1372,-3.1334,-3.1333,-3.1333,-3.1333,0,-3.1079,-3.1102,-3.112,-3.1136,-3.1163,-3.1172,-3.1197,-3.1208,-3.1223,-3.1242,-3.1245,-3.1262,-3.1271,-3.129,-3.1296,-3.1323,-3.1327,-3.1333,-3.1334,-3.1333,-3.1333,-3.1341,-3.1339,-3.1335,-3.1334,-3.1334,-3.1334,0,-3.1102,-3.1115,-3.1145,-3.1168,-3.1174,-3.1192,-3.1211,-3.1228,-3.1237,-3.1261,-3.1267,-3.1282,-3.1304,-3.1314,-3.1341,-3.1345,-3.1376,-3.1375,-3.1371,-3.1372,-3.1389,-3.1388,-3.1441,-3.1449,-3.1404,-3.1404,-3.1405,0,-3.1121,-3.114,-3.1165,-3.1179,-3.1191,-3.1212,-3.1227,-3.1237,-3.1251,-3.1275,-3.1288,-3.1312,-3.1331,-3.1367,-3.1379,-3.1401,-3.1401,-3.1418,-3.1404,-3.1403,-3.1403,-3.1403,-3.1405,-3.1421,-3.1422,-3.1422,-3.1422,0,-3.1155,-3.1161,-3.1182,-3.1206,-3.1224,-3.1243,-3.1261,-3.1272,-3.1285,-3.1301,-3.1326,-3.1341,-3.137,-3.1393,-3.1416,-3.1426,-3.1427,-3.1427,-3.1432,-3.1432,-3.1429,-3.1433,-3.1379,-3.1425,-3.1425,-3.1425,-3.1425,-3.1425,-3.1177,-3.1195,-3.1216,-3.124,-3.1256,-3.1274,-3.1291,-3.1304,-3.1325,-3.1351,-3.1355,-3.1381,-3.14,-3.1431,-3.1442,-3.1463,-3.1459,-3.1466,-3.1468,-3.147,-3.1472,-3.1425,-3.1467,-3.1467,-3.1467,-3.1467,-3.1466,0,-3.1212,-3.1227,-3.1249,-3.1276,-3.1296,-3.1296,-3.1317,-3.1333,-3.1357,-3.1375,-3.1395,-3.1424,-3.1447,-3.1462,-3.1485,-3.1499,-3.15,-3.1505,-3.1504,-3.1507,-3.1474,-3.1468,-3.1504,-3.1504,-3.1504,-3.1504,-3.1504,-3.1504,-3.1233,-3.1263,-3.1272,-3.131,-3.1324,-3.1351,-3.1363,-3.138,-3.1395,-3.1428,-3.1448,-3.1458,-3.1476,-3.1501,-3.1522,-3.1526,-3.1535,-3.1541,-3.1544,-3.1513,-3.1509,-3.1506,-3.15,-3.1542,-3.1542,-3.1576,-3.1577,-3.1577]}]]